User: anonymous   Login
Location: *
(60.1759°S, 155.0663°W)
Time: 20:10:04
(UTC+00:00)
Language:

Cosmos 1174 - Orbit

View from above orbital plane
View from above orbital plane
View from above satellite
View from above satellite

Ground track
Ground track

The orbit data is extracted from the following two-line orbital elements,

1 11765U 80030A   19326.51947475  .00000281  00000-0  25400-4 0  9990
2 11765  66.0878  19.9964 0541284 135.1550 229.4642 14.39539357 34644
Epoch (UTC): 22 November 2019 12:28:02
Eccentricity: 0.0541284
inclination: 66.0878°
perigee height: 373 km
apogee height: 1146 km
right ascension of ascending node: 19.9964°
argument of perigee: 135.1550°
revolutions per day: 14.39539357
mean anomaly at epoch: 229.4642°
orbit number at epoch: 3464

The dashed part of the orbit path shows where the satellite is in the earth's shadow,  

DLR